,,Stat6,,Stat2,,Stat8,,Stat9,,Stat10,,Wind1,,Wind1,
time,status,PA1M_AVG,status,PR1M_SUM,status,RH1M_AVG,status,SR1M_AVG,status,TA1M_AVG,status,W1dAve1m,status,W1sAve1m,
2006-01-02, 00:00:00,VALID,918.291,VALID,0,VALID,88.5965,VALID,0.0849042,VALID,18.0545,VALID,351,VALID,0.222826,
2006-01-02, 00:01:00,VALID,918.295,VALID,0,VALID,88.9856,VALID,0.0679233,VALID,18.0358,VALID,351,VALID,0.257254,
2006-01-02, 00:02:00,VALID,918.285,VALID,0,VALID,89.2946,VALID,0.0849042,VALID,17.9737,VALID,350,VALID,0.333705,
2006-01-02, 00:03:00,VALID,918.274,VALID,0,VALID,89.3493,VALID,0.0679233,VALID,17.9451,VALID,349,VALID,0.313408,
2006-01-02, 00:04:00,VALID,918.271,VALID,0,VALID,89.5604,VALID,0.0849042,VALID,17.8934,VALID,349,VALID,0.353468,
2006-01-02, 00:05:00,VALID,918.264,VALID,0,VALID,90.4492,VALID,0.0339617,VALID,17.8389,VALID,315,VALID,0.351563,
2006-01-02, 00:06:00,VALID,918.257,VALID,0,VALID,90.9096,VALID,0.0339617,VALID,17.8256,VALID,306,VALID,0.263579,
2006-01-02, 00:07:00,VALID,918.249,VALID,0,VALID,91.6395,VALID,0.0169808,VALID,17.826,VALID,306,VALID,0.0463299,
2006-01-02, 00:08:00,VALID,918.242,VALID,0,VALID,91.4754,VALID,0.0169808,VALID,17.8288,VALID,353,VALID,0.502778,
2006-01-02, 00:09:00,VALID,918.238,VALID,0,VALID,90.7977,VALID,0,VALID,17.8133,VALID,12,VALID,0.357195,
2006-01-02, 00:10:00,VALID,918.225,VALID,0,VALID,90.7557,VALID,0.0169808,VALID,17.7639,VALID,12,VALID,0.166667,
2006-01-02, 00:11:00,VALID,918.22,VALID,0,VALID,90.8002,VALID,0.0169808,VALID,17.7385,VALID,12,VALID,0.00228659,
2006-01-02, 00:12:00,VALID,918.195,VALID,0,VALID,90.9617,VALID,0,VALID,17.7487,VALID,12,VALID,0,
2006-01-02, 00:13:00,VALID,918.168,VALID,0,VALID,90.9642,VALID,0.0339617,VALID,17.745,VALID,12,VALID,0.187678,
2006-01-02, 00:14:00,VALID,918.14,VALID,0,VALID,90.4213,VALID,0.0169808,VALID,17.7741,VALID,9,VALID,0.428886,
2006-01-02, 00:15:00,VALID,918.119,VALID,0,VALID,89.9393,VALID,0.0169808,VALID,17.8387,VALID,8,VALID,0.437682,
2006-01-02, 00:16:00,VALID,918.099,VALID,0,VALID,89.6621,VALID,0.0169808,VALID,17.8775,VALID,8,VALID,0.411515,
2006-01-02, 00:17:00,VALID,918.072,VALID,0,VALID,89.4955,VALID,0.0169808,VALID,17.9135,VALID,8,VALID,0.295455,
2006-01-02, 00:18:00,VALID,918.072,VALID,0,VALID,89.348,VALID,0.0339617,VALID,17.9359,VALID,8,VALID,0.0480639,
2006-01-02, 00:19:00,VALID,918.068,VALID,0,VALID,89.2412,VALID,0.0339617,VALID,17.9523,VALID,8,VALID,0.028343,
2006-01-02, 00:20:00,VALID,918.068,VALID,0,VALID,89.226,VALID,0.0169808,VALID,17.9456,VALID,8,VALID,0.118608,
2006-01-02, 00:21:00,VALID,918.057,VALID,0,VALID,89.3264,VALID,0,VALID,17.9259,VALID,8,VALID,0.0751488,
2006-01-02, 00:22:00,VALID,918.06,VALID,0,VALID,89.5909,VALID,0,VALID,17.8835,VALID,8,VALID,0.143945,
2006-01-02, 00:23:00,VALID,918.034,VALID,0,VALID,89.8363,VALID,0.0169808,VALID,17.8359,VALID,25,VALID,0.27782,
2006-01-02, 00:24:00,VALID,918.001,VALID,0,VALID,90.0665,VALID,0.0339617,VALID,17.7747,VALID,45,VALID,0.6121,
2006-01-02, 00:25:00,VALID,917.977,VALID,0,VALID,90.3081,VALID,0.0169808,VALID,17.7256,VALID,48,VALID,0.659299,
2006-01-02, 00:26:00,VALID,917.95,VALID,0,VALID,90.4492,VALID,0.0169808,VALID,17.6905,VALID,49,VALID,0.517223,
2006-01-02, 00:27:00,VALID,917.938,VALID,0,VALID,90.7036,VALID,0,VALID,17.652,VALID,49,VALID,0.517299,
2006-01-02, 00:28:00,VALID,917.926,VALID,0,VALID,91.1067,VALID,0.0169808,VALID,17.642,VALID,57,VALID,0.566034,
2006-01-02, 00:29:00,VALID,917.909,VALID,0,VALID,91.656,VALID,0,VALID,17.6158,VALID,95,VALID,0.853338,
2006-01-02, 00:30:00,VALID,917.897,VALID,0,VALID,92.3795,VALID,0,VALID,17.6291,VALID,120,VALID,0.764898,
2006-01-02, 00:31:00,VALID,917.898,VALID,0,VALID,93.4985,VALID,0.0339617,VALID,17.6,VALID,131,VALID,0.788517,
2006-01-02, 00:32:00,VALID,917.9,VALID,0,VALID,94.3238,VALID,0.0169808,VALID,17.5414,VALID,139,VALID,0.86942,
2006-01-02, 00:33:00,VALID,917.894,VALID,0,VALID,94.9749,VALID,0.0339617,VALID,17.4865,VALID,138,VALID,0.6633,
2006-01-02, 00:34:00,VALID,917.879,VALID,0,VALID,95.4199,VALID,0.0339617,VALID,17.4413,VALID,129,VALID,0.707422,
2006-01-02, 00:35:00,VALID,917.869,VALID,0,VALID,95.4416,VALID,0.0849042,VALID,17.3441,VALID,127,VALID,0.600142,
2006-01-02, 00:36:00,VALID,917.862,VALID,0,VALID,95.8574,VALID,0.0849042,VALID,17.3093,VALID,126,VALID,0.16654,
2006-01-02, 00:37:00,VALID,917.858,VALID,0,VALID,96.0074,VALID,0.0509425,VALID,17.2864,VALID,127,VALID,0.272529,
2006-01-02, 00:38:00,VALID,917.851,VALID,0,VALID,96.3965,VALID,0.101885,VALID,17.28,VALID,137,VALID,0.819767,
2006-01-02, 00:39:00,VALID,917.852,VALID,0,VALID,96.881,VALID,0.0849042,VALID,17.2606,VALID,139,VALID,0.954723,
2006-01-02, 00:40:00,VALID,917.859,VALID,0,VALID,97.1239,VALID,0.101885,VALID,17.2384,VALID,136,VALID,0.835366,
2006-01-02, 00:41:00,VALID,917.881,VALID,0,VALID,97.4723,VALID,0.0679233,VALID,17.1798,VALID,140,VALID,0.585405,
2006-01-02, 00:42:00,VALID,917.88,VALID,0,VALID,97.7686,VALID,0.101885,VALID,17.1311,VALID,137,VALID,0.401367,
2006-01-02, 00:43:00,VALID,917.853,VALID,0,VALID,98.1132,VALID,0.0509425,VALID,17.1025,VALID,135,VALID,0.246875,
2006-01-02, 00:44:00,VALID,917.846,VALID,0,VALID,98.4069,VALID,0.0339617,VALID,17.0697,VALID,135,VALID,0.0846037,
2006-01-02, 00:45:00,VALID,917.823,VALID,0,VALID,98.693,VALID,0.0849042,VALID,17.051,VALID,135,VALID,0.255269,
2006-01-02, 00:46:00,VALID,917.793,VALID,0,VALID,98.8545,VALID,0.0849042,VALID,17.0387,VALID,135,VALID,0.0666921,
2006-01-02, 00:47:00,VALID,917.796,VALID,0,VALID,99.0516,VALID,0.0339617,VALID,17.0023,VALID,135,VALID,0,
2006-01-02, 00:48:00,VALID,917.785,VALID,0,VALID,99.1699,VALID,0.0849042,VALID,16.9866,VALID,135,VALID,0,
2006-01-02, 00:49:00,VALID,917.781,VALID,0,VALID,99.1712,VALID,0.0679233,VALID,16.9638,VALID,135,VALID,0,
2006-01-02, 00:50:00,VALID,917.78,VALID,0,VALID,99.1025,VALID,0.0679233,VALID,16.925,VALID,135,VALID,0,
2006-01-02, 00:51:00,VALID,917.775,VALID,0,VALID,99.2119,VALID,0.0679233,VALID,16.8927,VALID,135,VALID,0,
2006-01-02, 00:52:00,VALID,917.762,VALID,0,VALID,99.3009,VALID,0.101885,VALID,16.8473,VALID,135,VALID,0.015625,
2006-01-02, 00:53:00,VALID,917.753,VALID,0,VALID,99.325,VALID,0.101885,VALID,16.8145,VALID,135,VALID,0.223895,
2006-01-02, 00:54:00,VALID,917.75,VALID,0,VALID,99.7002,VALID,0.0849042,VALID,16.8184,VALID,135,VALID,0.136628,
2006-01-02, 00:55:00,VALID,917.744,VALID,0,VALID,99.7726,VALID,0.101885,VALID,16.8346,VALID,135,VALID,0.0564453,
2006-01-02, 00:56:00,VALID,917.728,VALID,0,VALID,99.7574,VALID,0.101885,VALID,16.8408,VALID,135,VALID,0,
2006-01-02, 00:57:00,VALID,917.713,VALID,0,VALID,99.531,VALID,0.0679233,VALID,16.835,VALID,135,VALID,0,
2006-01-02, 00:58:00,VALID,917.713,VALID,0,VALID,99.4713,VALID,0.101885,VALID,16.8348,VALID,135,VALID,0.13244,
2006-01-02, 00:59:00,VALID,917.712,VALID,0,VALID,99.5552,VALID,0.0679233,VALID,16.8735,VALID,135,VALID,0.171165,
2006-01-02, 01:00:00,VALID,917.719,VALID,0,VALID,99.3441,VALID,0.0849042,VALID,16.9052,VALID,135,VALID,0.00744048,
2006-01-02, 01:01:00,VALID,917.723,VALID,0,VALID,98.7821,VALID,0.0679233,VALID,16.9061,VALID,135,VALID,0,
2006-01-02, 01:02:00,VALID,917.722,VALID,0,VALID,98.7261,VALID,0.101885,VALID,16.9121,VALID,135,VALID,0.363839,
2006-01-02, 01:03:00,VALID,917.731,VALID,0,VALID,98.5646,VALID,0.0849042,VALID,16.9418,VALID,135,VALID,0,
2006-01-02, 01:04:00,VALID,917.728,VALID,0,VALID,97.9339,VALID,0.0509425,VALID,16.8959,VALID,135,VALID,0,
2006-01-02, 01:05:00,VALID,917.702,VALID,0,VALID,97.9034,VALID,0.135847,VALID,16.9145,VALID,135,VALID,0.149368,
2006-01-02, 01:06:00,VALID,917.702,VALID,0,VALID,98.2009,VALID,0.186789,VALID,16.9433,VALID,135,VALID,0.0697545,
2006-01-02, 01:07:00,VALID,917.7,VALID,0,VALID,97.9352,VALID,0.186789,VALID,16.9726,VALID,135,VALID,0.114258,
2006-01-02, 01:08:00,VALID,917.709,VALID,0,VALID,97.7877,VALID,0.186789,VALID,17.0047,VALID,135,VALID,0.0801235,
2006-01-02, 01:09:00,VALID,917.696,VALID,0,VALID,97.6313,VALID,0.135847,VALID,17.0601,VALID,135,VALID,0.0850497,
2006-01-02, 01:10:00,VALID,917.69,VALID,0,VALID,97.3235,VALID,0.135847,VALID,17.076,VALID,135,VALID,0,
2006-01-02, 01:11:00,VALID,917.7,VALID,0,VALID,96.9993,VALID,0.169808,VALID,17.0859,VALID,135,VALID,0.0786458,
2006-01-02, 01:12:00,VALID,917.694,VALID,0,VALID,96.3838,VALID,0.118866,VALID,17.0407,VALID,135,VALID,0.26598,
2006-01-02, 01:13:00,VALID,917.683,VALID,0,VALID,96.703,VALID,0.101885,VALID,17.0598,VALID,177,VALID,0.462426,
2006-01-02, 01:14:00,VALID,917.665,VALID,0,VALID,96.572,VALID,0.118866,VALID,17.0956,VALID,179,VALID,0.338118,
2006-01-02, 01:15:00,VALID,917.667,VALID,0,VALID,96.4334,VALID,0.118866,VALID,17.1152,VALID,179,VALID,0.102679,
2006-01-02, 01:16:00,VALID,917.657,VALID,0,VALID,96.2643,VALID,0.152827,VALID,17.1143,VALID,179,VALID,0.00362043,
2006-01-02, 01:17:00,VALID,917.652,VALID,0,VALID,96.1041,VALID,0.135847,VALID,17.1051,VALID,179,VALID,0,
2006-01-02, 01:18:00,VALID,917.655,VALID,0,VALID,96.2198,VALID,0.118866,VALID,17.1018,VALID,179,VALID,0,
2006-01-02, 01:19:00,VALID,917.656,VALID,0,VALID,96.2223,VALID,0.152827,VALID,17.1016,VALID,179,VALID,0.00121528,
2006-01-02, 01:20:00,VALID,917.656,VALID,0,VALID,94.9761,VALID,0.135847,VALID,17.0499,VALID,179,VALID,0,
2006-01-02, 01:21:00,VALID,917.652,VALID,0,VALID,94.7269,VALID,0.135847,VALID,16.9306,VALID,179,VALID,0,
2006-01-02, 01:22:00,VALID,917.656,VALID,0,VALID,95.4797,VALID,0.135847,VALID,16.9272,VALID,179,VALID,0,
2006-01-02, 01:23:00,VALID,917.628,VALID,0,VALID,95.0906,VALID,0.169808,VALID,16.8626,VALID,161,VALID,0.41183,
2006-01-02, 01:24:00,VALID,917.617,VALID,0,VALID,95.6895,VALID,0.101885,VALID,16.7921,VALID,76,VALID,0.679142,
2006-01-02, 01:25:00,VALID,917.603,VALID,0,VALID,96.4525,VALID,0.169808,VALID,16.7663,VALID,46,VALID,0.629278,
2006-01-02, 01:26:00,VALID,917.571,VALID,0,VALID,97.0768,VALID,0.152827,VALID,16.7629,VALID,16,VALID,0.771913,
2006-01-02, 01:27:00,VALID,917.542,VALID,0,VALID,97.4888,VALID,0.152827,VALID,16.7749,VALID,12,VALID,0.579985,
2006-01-02, 01:28:00,VALID,917.522,VALID,0,VALID,97.6516,VALID,0.135847,VALID,16.8046,VALID,10,VALID,0.26508,
2006-01-02, 01:29:00,VALID,917.502,VALID,0,VALID,97.7788,VALID,0.118866,VALID,16.8242,VALID,10,VALID,0.209339,
2006-01-02, 01:30:00,VALID,917.48,VALID,0,VALID,97.9021,VALID,0.118866,VALID,16.86,VALID,360,VALID,0.392485,
2006-01-02, 01:31:00,VALID,917.469,VALID,0,VALID,98.1081,VALID,0.152827,VALID,16.9048,VALID,354,VALID,0.437682,
2006-01-02, 01:32:00,VALID,917.467,VALID,0,VALID,98.2175,VALID,0.101885,VALID,16.9532,VALID,354,VALID,0.434375,
2006-01-02, 01:33:00,VALID,917.475,VALID,0,VALID,98.0725,VALID,0.118866,VALID,16.9922,VALID,354,VALID,0.0671165,
2006-01-02, 01:34:00,VALID,917.475,VALID,0,VALID,97.6936,VALID,0.118866,VALID,17.0051,VALID,354,VALID,0,
2006-01-02, 01:35:00,VALID,917.465,VALID,0,VALID,97.4049,VALID,0.101885,VALID,17.0084,VALID,354,VALID,0,
2006-01-02, 01:36:00,VALID,917.467,VALID,0,VALID,97.3579,VALID,0.101885,VALID,17.0084,VALID,354,VALID,0,
2006-01-02, 01:37:00,VALID,917.461,VALID,0,VALID,97.1735,VALID,0.118866,VALID,17.0178,VALID,354,VALID,0,
2006-01-02, 01:38:00,VALID,917.471,VALID,0,VALID,97.0285,VALID,0.0849042,VALID,17.0148,VALID,354,VALID,0,
2006-01-02, 01:39:00,VALID,917.459,VALID,0,VALID,97.0705,VALID,0.118866,VALID,17.0215,VALID,354,VALID,0,
2006-01-02, 01:40:00,VALID,917.461,VALID,0,VALID,97.1035,VALID,0.118866,VALID,17.0118,VALID,354,VALID,0,
2006-01-02, 01:41:00,VALID,917.456,VALID,0,VALID,97.2371,VALID,0.0849042,VALID,17.0215,VALID,354,VALID,0,
2006-01-02, 01:42:00,VALID,917.437,VALID,0,VALID,97.2282,VALID,0.118866,VALID,17.0114,VALID,354,VALID,0,
2006-01-02, 01:43:00,VALID,917.445,VALID,0,VALID,96.9026,VALID,0.101885,VALID,16.9888,VALID,354,VALID,0,
2006-01-02, 01:44:00,VALID,917.45,VALID,0,VALID,96.8518,VALID,0.101885,VALID,16.9537,VALID,354,VALID,0,
2006-01-02, 01:45:00,VALID,917.45,VALID,0,VALID,97.0272,VALID,0.101885,VALID,16.9373,VALID,354,VALID,0.0948661,
2006-01-02, 01:46:00,VALID,917.455,VALID,0,VALID,97.1748,VALID,0.0849042,VALID,16.9311,VALID,354,VALID,0.293501,
2006-01-02, 01:47:00,VALID,917.455,VALID,0,VALID,97.2777,VALID,0.118866,VALID,16.9341,VALID,354,VALID,0.102628,
2006-01-02, 01:48:00,VALID,917.445,VALID,0,VALID,97.2498,VALID,0.135847,VALID,16.9339,VALID,354,VALID,0.219322,
2006-01-02, 01:49:00,VALID,917.453,VALID,0,VALID,97.0717,VALID,0.101885,VALID,16.9084,VALID,354,VALID,0.176172,
2006-01-02, 01:50:00,VALID,917.456,VALID,0,VALID,97.1353,VALID,0.0339617,VALID,16.8804,VALID,354,VALID,0.053125,
2006-01-02, 01:51:00,VALID,917.446,VALID,0,VALID,97.41,VALID,0.0339617,VALID,16.8772,VALID,354,VALID,0.282584,
2006-01-02, 01:52:00,VALID,917.435,VALID,0,VALID,97.8055,VALID,0,VALID,16.9259,VALID,354,VALID,0.234189,
2006-01-02, 01:53:00,VALID,917.436,VALID,0,VALID,97.8004,VALID,0,VALID,16.9743,VALID,354,VALID,0.335193,
2006-01-02, 01:54:00,VALID,917.416,VALID,0,VALID,97.7126,VALID,0.0169808,VALID,17.0325,VALID,351,VALID,0.413318,
2006-01-02, 01:55:00,VALID,917.403,VALID,0,VALID,97.6898,VALID,0.0169808,VALID,17.1001,VALID,351,VALID,0.348474,
2006-01-02, 01:56:00,VALID,917.386,VALID,0,VALID,96.9331,VALID,0.0339617,VALID,17.1264,VALID,351,VALID,0.0266768,
2006-01-02, 01:57:00,VALID,917.364,VALID,0,VALID,96.4487,VALID,0.0339617,VALID,17.0971,VALID,351,VALID,0.133594,
2006-01-02, 01:58:00,VALID,917.352,VALID,0,VALID,96.4957,VALID,0.0679233,VALID,17.107,VALID,351,VALID,0.0594113,
2006-01-02, 01:59:00,VALID,917.349,VALID,0,VALID,96.3215,VALID,0.0169808,VALID,17.1003,VALID,351,VALID,0.00136719,
2006-01-02, 02:00:00,VALID,917.344,VALID,0,VALID,96.4601,VALID,0.0679233,VALID,17.0969,VALID,351,VALID,0,
2006-01-02, 02:01:00,VALID,917.342,VALID,0,VALID,96.6013,VALID,0.0509425,VALID,17.0904,VALID,351,VALID,0.0636161,
2006-01-02, 02:02:00,VALID,917.348,VALID,0,VALID,96.3457,VALID,0.0849042,VALID,17.0514,VALID,351,VALID,0.259629,
2006-01-02, 02:03:00,VALID,917.346,VALID,0,VALID,96.1969,VALID,0.0339617,VALID,17.0161,VALID,351,VALID,0.198103,
2006-01-02, 02:04:00,VALID,917.344,VALID,0,VALID,96.3406,VALID,-0.0169808,VALID,16.981,VALID,351,VALID,0.332775,
2006-01-02, 02:05:00,VALID,917.341,VALID,0,VALID,96.736,VALID,0.0169808,VALID,16.9616,VALID,351,VALID,0.351926,
2006-01-02, 02:06:00,VALID,917.349,VALID,0,VALID,96.7907,VALID,0,VALID,16.9257,VALID,351,VALID,0.472834,
2006-01-02, 02:07:00,VALID,917.347,VALID,0,VALID,96.5059,VALID,0.0169808,VALID,16.8837,VALID,351,VALID,0.452753,
2006-01-02, 02:08:00,VALID,917.349,VALID,0,VALID,97.2714,VALID,0,VALID,16.8544,VALID,339,VALID,0.643169,
2006-01-02, 02:09:00,VALID,917.345,VALID,0,VALID,97.9008,VALID,0.0339617,VALID,16.9,VALID,345,VALID,0.554518,
2006-01-02, 02:10:00,VALID,917.352,VALID,0,VALID,98.0394,VALID,0,VALID,16.9321,VALID,10,VALID,0.529688,
2006-01-02, 02:11:00,VALID,917.347,VALID,0,VALID,97.8093,VALID,0,VALID,16.9386,VALID,358,VALID,0.298611,
2006-01-02, 02:12:00,VALID,917.357,VALID,0,VALID,97.6402,VALID,0.0339617,VALID,16.9224,VALID,359,VALID,0.478981,
2006-01-02, 02:13:00,VALID,917.353,VALID,0,VALID,97.6643,VALID,0.0169808,VALID,16.9259,VALID,354,VALID,0.569041,
2006-01-02, 02:14:00,VALID,917.36,VALID,0,VALID,97.8716,VALID,0.0679233,VALID,16.9127,VALID,1,VALID,0.561773,
2006-01-02, 02:15:00,VALID,917.367,VALID,0,VALID,98.0496,VALID,0.0509425,VALID,16.9158,VALID,1,VALID,0.499814,
2006-01-02, 02:16:00,VALID,917.361,VALID,0,VALID,98.1793,VALID,0.0509425,VALID,16.9418,VALID,6,VALID,0.452734,
2006-01-02, 02:17:00,VALID,917.366,VALID,0,VALID,98.2556,VALID,0,VALID,16.942,VALID,344,VALID,0.625762,
2006-01-02, 02:18:00,VALID,917.359,VALID,0,VALID,98.5939,VALID,0.0679233,VALID,16.9903,VALID,352,VALID,0.753348,
2006-01-02, 02:19:00,VALID,917.364,VALID,0,VALID,98.4616,VALID,0.0339617,VALID,17.0258,VALID,7,VALID,0.678622,
2006-01-02, 02:20:00,VALID,917.368,VALID,0,VALID,98.3942,VALID,0.0849042,VALID,17.0579,VALID,4,VALID,0.572115,
2006-01-02, 02:21:00,VALID,917.389,VALID,0,VALID,98.5417,VALID,0.0169808,VALID,17.1061,VALID,349,VALID,0.749023,
2006-01-02, 02:22:00,VALID,917.41,VALID,0,VALID,98.4832,VALID,0.0339617,VALID,17.1647,VALID,305,VALID,0.530231,
2006-01-02, 02:23:00,VALID,917.398,VALID,0,VALID,98.4438,VALID,-0.0169808,VALID,17.2005,VALID,325,VALID,0.450648,
2006-01-02, 02:24:00,VALID,917.408,VALID,0,VALID,97.1112,VALID,0.0509425,VALID,17.1518,VALID,29,VALID,0.28343,
2006-01-02, 02:25:00,VALID,917.415,VALID,0,VALID,97.4748,VALID,0.0509425,VALID,17.1296,VALID,353,VALID,0.830305,
2006-01-02, 02:26:00,VALID,917.414,VALID,0,VALID,98.262,VALID,0.0169808,VALID,17.2169,VALID,348,VALID,1.01736,
2006-01-02, 02:27:00,VALID,917.391,VALID,0,VALID,98.5824,VALID,0,VALID,17.3198,VALID,353,VALID,0.96147,
2006-01-02, 02:28:00,VALID,917.396,VALID,0,VALID,97.864,VALID,0.0169808,VALID,17.3715,VALID,343,VALID,0.93641,
2006-01-02, 02:29:00,VALID,917.396,VALID,0,VALID,97.5728,VALID,0.0169808,VALID,17.4006,VALID,4,VALID,0.970238,
2006-01-02, 02:30:00,VALID,917.391,VALID,0,VALID,97.466,VALID,0.0509425,VALID,17.4299,VALID,350,VALID,0.993164,
2006-01-02, 02:31:00,VALID,917.387,VALID,0,VALID,97.3108,VALID,0.0339617,VALID,17.4523,VALID,346,VALID,0.948509,
2006-01-02, 02:32:00,VALID,917.373,VALID,0,VALID,97.176,VALID,0.0509425,VALID,17.4585,VALID,341,VALID,0.595465,
2006-01-02, 02:33:00,VALID,917.383,VALID,0,VALID,96.7945,VALID,0.0339617,VALID,17.4495,VALID,348,VALID,0.787791,
2006-01-02, 02:34:00,VALID,917.372,VALID,0,VALID,97.129,VALID,0.0169808,VALID,17.4361,VALID,340,VALID,0.957131,
2006-01-02, 02:35:00,VALID,917.359,VALID,0,VALID,97.045,VALID,0.169808,VALID,17.438,VALID,329,VALID,0.747713,
2006-01-02, 02:36:00,VALID,917.365,VALID,0,VALID,97.0641,VALID,0.169808,VALID,17.4178,VALID,321,VALID,0.0464744,
2006-01-02, 02:37:00,VALID,917.352,VALID,0,VALID,96.9726,VALID,0.118866,VALID,17.4092,VALID,321,VALID,0.00101902,
2006-01-02, 02:38:00,VALID,917.321,VALID,0,VALID,96.8212,VALID,0.135847,VALID,17.3928,VALID,323,VALID,0.130716,
2006-01-02, 02:39:00,VALID,917.319,VALID,0,VALID,96.4703,VALID,0.186789,VALID,17.3476,VALID,334,VALID,0.131392,
2006-01-02, 02:40:00,VALID,917.331,VALID,0,VALID,96.5644,VALID,0.101885,VALID,17.3084,VALID,312,VALID,0.378815,
2006-01-02, 02:41:00,VALID,917.332,VALID,0,VALID,96.8276,VALID,0.152827,VALID,17.3056,VALID,235,VALID,0.532986,
2006-01-02, 02:42:00,VALID,917.323,VALID,0,VALID,96.9993,VALID,0.118866,VALID,17.2959,VALID,203,VALID,0.243862,
2006-01-02, 02:43:00,VALID,917.321,VALID,0,VALID,96.9827,VALID,0.152827,VALID,17.286,VALID,197,VALID,0.681362,
2006-01-02, 02:44:00,VALID,917.329,VALID,0,VALID,97.0171,VALID,0.135847,VALID,17.2733,VALID,188,VALID,0.700521,
2006-01-02, 02:45:00,VALID,917.336,VALID,0,VALID,97.115,VALID,0.152827,VALID,17.2535,VALID,186,VALID,0.605097,
2006-01-02, 02:46:00,VALID,917.343,VALID,0,VALID,97.3006,VALID,0.152827,VALID,17.2498,VALID,186,VALID,0.233487,
2006-01-02, 02:47:00,VALID,917.358,VALID,0,VALID,97.4736,VALID,0.169808,VALID,17.2767,VALID,186,VALID,0.136905,
2006-01-02, 02:48:00,VALID,917.363,VALID,0,VALID,97.7622,VALID,0.101885,VALID,17.3282,VALID,186,VALID,0.135156,
2006-01-02, 02:49:00,VALID,917.368,VALID,0,VALID,97.9072,VALID,0.101885,VALID,17.3736,VALID,186,VALID,0.238281,
2006-01-02, 02:50:00,VALID,917.362,VALID,0,VALID,97.9593,VALID,0.118866,VALID,17.3993,VALID,186,VALID,0.113917,
2006-01-02, 02:51:00,VALID,917.344,VALID,0,VALID,97.9593,VALID,0.101885,VALID,17.4383,VALID,186,VALID,0.046689,
2006-01-02, 02:52:00,VALID,917.332,VALID,0,VALID,97.8894,VALID,0.101885,VALID,17.4577,VALID,215,VALID,0.193004,
2006-01-02, 02:53:00,VALID,917.313,VALID,0,VALID,97.9581,VALID,0.118866,VALID,17.5386,VALID,285,VALID,0.120164,
2006-01-02, 02:54:00,VALID,917.296,VALID,0,VALID,97.6694,VALID,0.101885,VALID,17.5871,VALID,285,VALID,0.140816,
2006-01-02, 02:55:00,VALID,917.286,VALID,0,VALID,97.3718,VALID,0.101885,VALID,17.6289,VALID,285,VALID,0.0582386,
2006-01-02, 02:56:00,VALID,917.291,VALID,0,VALID,97.0196,VALID,0.101885,VALID,17.6672,VALID,284,VALID,0.000181686,
2006-01-02, 02:57:00,VALID,917.274,VALID,0,VALID,96.7157,VALID,0.101885,VALID,17.7157,VALID,284,VALID,0.00090843,
2006-01-02, 02:58:00,VALID,917.283,VALID,0,VALID,96.4906,VALID,0.101885,VALID,17.7222,VALID,285,VALID,0.0261052,
2006-01-02, 02:59:00,VALID,917.264,VALID,0,VALID,95.6221,VALID,0.101885,VALID,17.706,VALID,334,VALID,0.257227,
2006-01-02, 03:00:00,VALID,917.268,VALID,0,VALID,95.3207,VALID,0.101885,VALID,17.6351,VALID,4,VALID,0.499814,
2006-01-02, 03:01:00,VALID,917.247,VALID,0,VALID,96.1918,VALID,0.0849042,VALID,17.6739,VALID,338,VALID,0.651486,
2006-01-02, 03:02:00,VALID,917.237,VALID,0,VALID,96.4983,VALID,0.101885,VALID,17.7258,VALID,338,VALID,0.513263,
2006-01-02, 03:03:00,VALID,917.24,VALID,0,VALID,96.1626,VALID,0.101885,VALID,17.7413,VALID,342,VALID,0.610305,
2006-01-02, 03:04:00,VALID,917.228,VALID,0,VALID,95.9235,VALID,0.101885,VALID,17.7254,VALID,329,VALID,0.554142,
2006-01-02, 03:05:00,VALID,917.221,VALID,0,VALID,96.4016,VALID,0.101885,VALID,17.751,VALID,331,VALID,0.836107,
2006-01-02, 03:06:00,VALID,917.21,VALID,0,VALID,96.3749,VALID,0.101885,VALID,17.7706,VALID,320,VALID,0.434766,
2006-01-02, 03:07:00,VALID,917.197,VALID,0,VALID,96.1168,VALID,0.101885,VALID,17.7805,VALID,319,VALID,0.499442,
2006-01-02, 03:08:00,VALID,917.179,VALID,0,VALID,96.4321,VALID,0.118866,VALID,17.7997,VALID,330,VALID,0.584517,
2006-01-02, 03:09:00,VALID,917.184,VALID,0,VALID,96.1371,VALID,0.101885,VALID,17.8221,VALID,332,VALID,0.357337,
2006-01-02, 03:10:00,VALID,917.185,VALID,0,VALID,96.263,VALID,0.101885,VALID,17.8383,VALID,323,VALID,0.411458,
2006-01-02, 03:11:00,VALID,917.171,VALID,0,VALID,95.9235,VALID,0.0849042,VALID,17.8706,VALID,312,VALID,0.317224,
2006-01-02, 03:12:00,VALID,917.173,VALID,0,VALID,95.2152,VALID,0.101885,VALID,17.835,VALID,322,VALID,0.172061,
2006-01-02, 03:13:00,VALID,917.174,VALID,0,VALID,95.6514,VALID,0.101885,VALID,17.8089,VALID,323,VALID,0.406436,
2006-01-02, 03:14:00,VALID,917.167,VALID,0,VALID,95.851,VALID,0.118866,VALID,17.8129,VALID,324,VALID,0.286458,
2006-01-02, 03:15:00,VALID,917.162,VALID,0,VALID,95.8205,VALID,0.101885,VALID,17.8029,VALID,324,VALID,0.0861328,
2006-01-02, 03:16:00,VALID,917.168,VALID,0,VALID,95.5522,VALID,0.135847,VALID,17.7739,VALID,324,VALID,0.0661458,
2006-01-02, 03:17:00,VALID,917.181,VALID,0,VALID,95.7912,VALID,0.135847,VALID,17.7219,VALID,339,VALID,0.389382,
2006-01-02, 03:18:00,VALID,917.191,VALID,0,VALID,96.2071,VALID,0.135847,VALID,17.6956,VALID,354,VALID,0.354167,
2006-01-02, 03:19:00,VALID,917.207,VALID,0,VALID,96.5033,VALID,0.118866,VALID,17.7053,VALID,354,VALID,0.283253,
2006-01-02, 03:20:00,VALID,917.203,VALID,0,VALID,96.4919,VALID,0.0339617,VALID,17.7297,VALID,354,VALID,0.0053267,
2006-01-02, 03:21:00,VALID,917.197,VALID,0,VALID,96.4601,VALID,0,VALID,17.7457,VALID,354,VALID,0,
2006-01-02, 03:22:00,VALID,917.184,VALID,0,VALID,96.2783,VALID,0.0169808,VALID,17.7623,VALID,354,VALID,0,
2006-01-02, 03:23:00,VALID,917.173,VALID,0,VALID,96.0672,VALID,0.0339617,VALID,17.7392,VALID,354,VALID,0.128018,
2006-01-02, 03:24:00,VALID,917.178,VALID,0,VALID,96.174,VALID,0.0169808,VALID,17.7524,VALID,354,VALID,0,
2006-01-02, 03:25:00,VALID,917.177,VALID,0,VALID,96.2668,VALID,0.0169808,VALID,17.7914,VALID,354,VALID,0.00327035,
2006-01-02, 03:26:00,VALID,917.157,VALID,0,VALID,96.3088,VALID,0.0169808,VALID,17.8301,VALID,354,VALID,0.00104167,
2006-01-02, 03:27:00,VALID,917.152,VALID,0,VALID,96.3889,VALID,0,VALID,17.8724,VALID,354,VALID,0.162609,
2006-01-02, 03:28:00,VALID,917.143,VALID,0,VALID,96.0061,VALID,-0.0169808,VALID,17.898,VALID,354,VALID,0.0837891,
2006-01-02, 03:29:00,VALID,917.135,VALID,0,VALID,95.4365,VALID,0,VALID,17.8657,VALID,354,VALID,0,
2006-01-02, 03:30:00,VALID,917.108,VALID,0,VALID,95.4568,VALID,0.0169808,VALID,17.8359,VALID,354,VALID,0.000744048,
2006-01-02, 03:31:00,VALID,917.089,VALID,0,VALID,95.2699,VALID,0.0169808,VALID,17.8105,VALID,354,VALID,0.165737,
2006-01-02, 03:32:00,VALID,917.088,VALID,0,VALID,94.9978,VALID,0,VALID,17.8073,VALID,354,VALID,0.288681,
2006-01-02, 03:33:00,VALID,917.085,VALID,0,VALID,95.1275,VALID,0,VALID,17.7586,VALID,354,VALID,0.0672238,
2006-01-02, 03:34:00,VALID,917.09,VALID,0,VALID,95.2165,VALID,0,VALID,17.7295,VALID,354,VALID,0,
2006-01-02, 03:35:00,VALID,917.094,VALID,0,VALID,95.3627,VALID,0,VALID,17.7108,VALID,354,VALID,0,